SL-6 R/B(2) (20666 NORAD) Tracking and Keplerian Element Data

This shows tracking and keplerian element data for the satellite.

Feedback or suggestion? Click here.




ElementValue
Catalog20666
NameSL-6 R/B(2)
Epoch Orbit71098
Epoch Day16.12015251
Epoch Year2022
RAAN313.8413
Inclination62.7853
Eccentricity0.012078
Argument of Perigee57.3409
Mean Anonmoly303.9269
Mean Motion14.92700004
Decay Rate8.83E-06
L11 20666U 90055D 22016.12015251 .00000883 00000+0 91788-4 0 9992
L22 20666 62.7853 313.8413 0120780 57.3409 303.9269 14.92700004710986

Live tracking and technical data element details for SL-6 R/B(2) (NORAD 20666). SL-6 R/B(2) can be tracked NOW for your location showing map with azimuth and elevation plus other details from your city location.

Track the satellite on the map from your city or location and see movement details for azimuth, elevation, latitude, longitude, range, height, and movement on the map or in text.







IsCatalogInMostPopularTable: catalog: 20666, numindb: 328
Update: records affected: 1



GetName: 20666 SL-6 R/B(2)

Hit Count: updated at: Mon, 17 Jan 2022 01:26:39 GMT